Wind_Speed
32 31 31 30 30 30 30 29 30 28 28 26 25 25 24 24 24 23 23 23 25 26 26 27 29 30 31 32 34 35 37 37 36 37 37 37 39 39 39 40 40 41 42 42
36 34 34 33 31 31 31 30 31 30 29 27 27 27 26 26 26 25 24 25 25 26 27 28 29 31 31 33 33 35 36 36 37 38 38 39 39 40 40 41 42 42 43 43
38 37 37 36 32 32 32 31 31 31 30 29 29 28 28 28 27 27 27 26 27 27 28 29 30 31 32 32 33 35 36 37 38 38 38 40 41 41 42 42 43 44 44 45
40 39 40 36 35 33 33 32 32 32 31 32 32 30 30 29 29 28 28 28 28 29 30 31 32 32 33 33 34 35 36 37 38 38 39 41 42 44 44 45 45 45 45 45
41 41 41 39 37 36 35 35 33 33 33 33 33 33 32 31 31 30 30 31 30 30 31 32 33 33 34 34 35 36 36 37 38 39 40 41 42 43 44 45 45 45 46 46
41 42 42 40 39 38 38 38 35 35 35 35 35 35 34 33 33 33 32 32 31 32 32 32 32 32 33 34 35 36 37 38 39 40 41 42 42 43 44 45 45 45 46 46
41 42 42 41 39 39 39 38 37 37 37 36 36 35 35 35 34 34 33 33 33 33 32 33 33 33 33 34 35 36 37 38 39 40 41 42 42 43 43 44 44 44 45 45
41 42 41 40 40 40 40 40 39 38 38 37 37 36 36 36 35 34 34 34 34 34 34 34 34 35 35 36 37 38 39 39 39 41 41 42 42 42 42 43 43 44 44 45
42 41 41 41 41 41 41 40 40 39 38 38 37 37 36 36 36 36 35 35 36 36 35 35 36 36 37 37 38 38 39 40 41 42 43 43 43 43 44 44 44 45 46 46
42 41 41 41 41 41 41 41 40 40 39 38 38 38 37 37 37 37 37 37 37 37 37 37 37 38 39 39 39 40 41 42 42 43 43 44 44 44 45 45 45 45 45 46
41 41 42 42 42 42 43 42 42 41 40 39 39 38 38 38 39 39 39 38 39 40 40 40 40 40 40 40 40 41 42 43 43 43 44 44 45 45 45 45 45 45 45 46
42 41 42 42 42 43 43 43 43 43 42 42 41 40 39 39 40 41 41 41 41 41 41 41 42 42 42 42 42 42 42 43 43 44 44 44 45 45 45 45 45 46 46 47
42 42 42 42 42 43 43 43 43 43 43 42 41 41 40 40 40 40 41 42 42 42 43 43 43 43 44 44 44 43 43 44 44 44 44 45 46 46 46 46 46 46 47 48
41 42 42 42 42 43 43 43 43 43 43 43 42 42 41 41 41 41 41 41 42 42 42 43 43 43 43 44 44 44 44 45 45 45 45 46 46 46 46 46 47 47 48 48
38 39 41 41 41 42 42 42 42 43 43 42 42 42 42 42 42 42 42 42 42 42 42 42 42 43 43 44 44 44 44 45 45 45 46 46 47 47 47 47 48 48 48 48
36 37 38 39 40 41 41 41 41 42 42 42 41 41 42 42 42 42 42 42 41 41 41 42 42 43 43 44 44 44 44 45 45 45 45 45 46 46 47 47 47 48 48 47
34 34 35 37 38 39 40 40 40 40 40 41 40 40 40 40 41 41 41 41 41 41 40 41 42 43 43 43 44 44 44 44 44 44 44 45 45 46 46 46 46 46 46 46
32 32 33 34 35 36 37 38 39 39 39 39 39 39 39 39 39 40 40 40 40 40 41 42 42 43 43 43 43 43 43 43 43 43 43 43 44 44 44 45 45 45 45 45
30 31 31 32 32 32 33 34 35 36 37 37 37 38 38 38 39 39 39 40 40 41 42 43 43 43 43 42 42 42 42 42 42 42 42 43 43 44 44 44 44 44 44 44
29 30 30 31 31 31 31 32 33 34 35 36 36 36 37 37 37 38 38 39 40 41 41 40 40 40 40 41 41 41 41 41 41 42 43 43 43 43 43 43 43 43 42 42
29 30 30 30 30 31 32 32 32 33 34 35 35 36 36 37 37 37 37 38 38 39 38 38 38 38 38 38 38 39 39 40 40 41 41 41 42 42 42 41 41 40 40 40
28 29 29 30 30 31 32 32 33 33 33 33 34 35 35 35 35 35 36 36 35 36 36 36 36 36 37 37 37 37 38 38 39 39 39 38 38 39 38 38 38 37 37 37
26 27 28 29 30 30 31 32 32 32 32 33 33 33 32 32 33 33 33 33 34 34 34 34 35 35 35 36 36 36 36 37 37 37 36 36 35 35 35 34 34 34 34 34
25 26 27 28 29 29 29 30 30 31 31 31 31 30 30 31 31 32 32 32 33 33 33 34 34 34 34 34 34 35 35 35 35 35 35 34 34 33 33 32 32 33 33 33
25 25 26 27 27 27 27 27 27 27 27 27 28 28 28 28 28 29 30 30 31 31 32 32 32 33 33 33 33 33 34 33 33 33 33 32 32 31 31 31 32 32 32 32
25 25 25 25 25 25 25 26 26 26 26 26 26 26 26 26 27 27 28 28 29 29 30 30 31 32 32 32 32 32 32 31 31 31 31 30 30 30 31 31 31 30 30 30
24 24 24 24 24 24 24 24 24 24 24 25 25 26 26 26 26 26 27 27 28 28 28 29 30 30 30 30 30 30 30 29 29 29 28 29 29 29 30 30 29 29 29 29
Wind_Direction
261 263 265 266 267 270 272 273 274 275 276 277 278 279 279 278 278 274 270 266 265 263 263 262 260 260 260 261 259 259 259 260 263 262 261 261 260 259 259 261 262 263 264 266
260 261 263 264 265 268 271 272 274 274 275 275 275 276 277 277 277 275 271 269 266 264 263 263 261 261 262 262 261 262 262 263 264 263 261 262 261 261 261 262 264 264 266 267
262 261 262 262 265 267 269 271 272 272 274 273 274 275 276 276 277 276 274 272 269 267 266 265 263 263 264 263 262 263 264 264 264 263 263 263 263 264 265 266 267 267 267 269
261 261 261 264 264 266 268 270 270 270 271 272 273 274 274 275 275 274 273 272 269 268 267 265 264 264 265 264 264 265 265 265 265 263 263 264 264 265 267 267 268 269 269 269
261 262 263 263 265 266 268 269 270 270 269 270 271 273 274 275 274 273 273 271 268 267 267 266 266 266 265 265 266 267 267 265 264 264 264 265 266 267 267 267 268 268 270 271
260 261 263 264 265 266 267 268 269 268 269 269 271 272 273 273 274 273 273 272 269 267 266 266 266 265 265 266 268 268 268 266 264 265 266 267 268 268 269 269 268 269 270 271
259 259 261 262 264 266 267 269 268 269 269 269 270 271 272 273 273 272 271 271 270 269 268 267 266 265 266 268 269 268 268 267 266 266 267 268 270 270 270 270 270 270 270 271
258 258 259 261 262 263 266 267 267 268 268 268 268 269 270 271 271 271 271 270 270 269 269 269 267 267 268 269 268 268 268 268 268 268 268 269 270 270 270 270 270 270 271 272
256 258 260 260 261 262 263 265 265 266 267 267 267 268 269 269 269 269 269 268 269 269 269 269 269 269 270 270 270 270 270 269 269 269 269 269 270 270 271 271 271 271 272 273
256 257 258 259 259 260 261 262 263 263 264 265 266 267 268 267 267 267 267 267 268 269 269 269 270 270 270 271 271 271 271 271 271 271 270 271 271 272 272 273 273 274 274 275
257 257 258 259 260 260 260 261 261 262 263 265 266 266 267 267 267 267 267 267 268 269 269 270 270 270 272 273 273 273 272 272 272 272 272 272 273 274 274 274 274 274 275 275
257 257 259 260 260 261 261 261 262 263 265 266 267 267 268 268 268 268 268 269 270 270 270 270 270 271 272 273 274 274 273 272 272 273 273 273 273 274 274 274 274 274 275 276
256 256 258 260 261 261 262 262 263 264 265 266 267 267 268 268 269 269 269 269 270 271 271 271 271 272 272 273 273 273 273 272 273 274 274 274 274 274 274 274 275 276 277 278
258 258 259 260 261 261 262 263 264 265 266 267 267 267 267 267 267 268 270 271 271 271 271 272 271 272 272 273 273 273 273 273 273 273 273 273 273 273 274 274 275 276 278 279
260 260 261 261 261 262 263 264 265 266 267 268 268 267 267 268 269 270 270 270 270 271 271 271 271 272 272 272 272 272 272 273 273 273 273 272 272 273 274 275 275 276 277 278
261 261 261 262 261 262 263 265 266 267 267 267 267 267 268 268 269 270 270 270 271 271 270 270 271 271 272 272 272 272 272 273 273 273 273 273 273 274 275 275 276 277 278 279
263 262 262 263 263 263 263 265 265 266 267 267 267 266 267 267 268 269 269 270 270 271 271 271 272 272 272 272 272 272 272 273 273 274 274 275 276 276 276 277 277 278 278 278
264 264 265 265 265 266 265 265 264 265 267 267 267 267 267 268 268 268 269 270 270 271 271 272 273 273 273 273 273 272 273 274 275 276 276 276 276 276 276 277 278 278 279 279
266 266 266 265 265 264 264 264 265 265 265 266 267 268 269 268 268 268 268 269 270 271 272 273 273 273 273 273 273 274 274 275 275 276 276 276 276 277 277 278 279 278 278 279
268 269 269 267 266 266 266 267 268 268 267 267 267 268 269 269 268 268 269 269 270 271 273 274 274 273 273 274 274 274 275 276 276 276 277 277 277 277 278 279 279 279 279 279
273 273 272 270 269 270 271 271 272 271 270 270 270 271 270 270 270 271 271 270 270 271 272 273 273 273 273 274 275 276 276 277 277 277 277 277 278 278 278 278 278 278 279 279
274 274 273 272 272 273 273 273 273 273 272 272 272 272 271 271 270 271 271 271 270 271 272 272 273 274 274 274 275 276 277 278 278 278 279 278 279 279 278 278 277 278 279 279
275 275 275 276 276 275 275 275 275 275 274 273 272 272 272 271 270 271 271 271 271 272 272 273 274 275 275 276 276 277 278 278 279 279 279 279 279 279 278 277 277 278 278 279
279 279 279 278 278 277 277 277 277 276 275 275 274 273 272 272 272 272 272 272 273 273 273 273 274 275 277 278 278 279 279 279 279 279 279 279 278 277 276 275 275 276 278 279
284 284 283 281 280 279 278 277 277 278 277 277 276 274 273 272 272 273 274 274 274 274 273 273 274 276 277 279 279 280 280 280 279 279 278 277 276 276 276 275 275 277 277 278
288 288 287 285 283 281 280 278 277 277 277 277 276 275 274 273 273 274 274 275 275 275 275 275 276 277 278 279 279 279 279 279 280 279 277 276 275 275 275 276 276 277 277 278
289 289 289 288 286 284 283 281 279 277 277 276 276 275 274 275 275 276 277 277 277 278 278 278 279 278 278 279 279 279 279 279 278 278 277 277 276 276 276 276 276 276 277 278
Height
5633 5634 5634 5635 5635 5635 5634 5634 5633 5634 5633 5633 5631 5629 5628 5626 5625 5624 5624 5623 5622 5622 5622 5622 5623 5623 5624 5625 5626 5627 5627 5628 5629 5629 5630 5631 5631 5632 5633 5633 5634 5634 5635 5635
5623 5624 5624 5625 5626 5626 5626 5625 5625 5624 5624 5624 5623 5621 5620 5619 5618 5618 5617 5616 5615 5615 5615 5615 5615 5616 5617 5617 5618 5618 5618 5619 5619 5619 5620 5621 5621 5622 5622 5623 5623 5623 5623 5622
5611 5613 5613 5615 5617 5617 5616 5617 5616 5615 5616 5614 5614 5613 5613 5612 5611 5610 5609 5609 5608 5608 5607 5608 5608 5608 5608 5608 5609 5609 5609 5609 5609 5610 5610 5610 5611 5611 5611 5611 5611 5611 5610 5610
5599 5602 5602 5607 5607 5607 5606 5607 5606 5606 5606 5605 5605 5604 5604 5603 5603 5602 5601 5601 5600 5600 5599 5599 5599 5599 5599 5600 5600 5600 5599 5599 5599 5600 5600 5600 5600 5600 5600 5600 5599 5599 5598 5598
5587 5588 5590 5594 5595 5596 5596 5596 5596 5596 5596 5596 5595 5596 5596 5595 5594 5593 5593 5592 5592 5591 5591 5590 5590 5590 5590 5590 5590 5590 5590 5589 5589 5589 5589 5589 5588 5588 5587 5587 5587 5587 5586 5585
5575 5576 5578 5583 5584 5584 5585 5585 5586 5585 5585 5586 5585 5586 5587 5585 5584 5584 5583 5583 5582 5582 5581 5581 5581 5580 5580 5580 5580 5579 5579 5579 5578 5578 5578 5577 5577 5576 5575 5575 5574 5574 5574 5573
5563 5563 5565 5570 5571 5572 5574 5575 5574 5574 5575 5575 5575 5575 5575 5574 5574 5573 5573 5573 5572 5572 5572 5572 5571 5571 5570 5570 5570 5569 5568 5567 5567 5566 5566 5565 5565 5564 5563 5563 5562 5562 5561 5560
5551 5551 5556 5557 5558 5560 5560 5561 5561 5562 5562 5563 5563 5563 5563 5563 5563 5562 5562 5562 5561 5562 5561 5561 5561 5561 5560 5560 5559 5558 5557 5557 5556 5555 5554 5553 5553 5552 5551 5550 5550 5549 5548 5547
5539 5542 5542 5543 5545 5546 5547 5548 5549 5550 5551 5551 5552 5552 5552 5552 5552 5552 5551 5551 5550 5550 5550 5550 5550 5549 5549 5548 5547 5547 5546 5545 5544 5543 5542 5541 5540 5540 5539 5538 5537 5536 5535 5535
5525 5527 5529 5530 5532 5533 5534 5535 5536 5537 5538 5539 5539 5540 5540 5540 5540 5540 5540 5540 5539 5539 5539 5539 5538 5538 5537 5536 5535 5534 5534 5533 5532 5531 5530 5529 5528 5527 5526 5525 5524 5523 5522 5521
5512 5515 5516 5518 5519 5520 5521 5522 5523 5524 5525 5526 5527 5528 5528 5528 5528 5528 5528 5528 5528 5527 5527 5527 5526 5526 5525 5524 5523 5522 5521 5520 5519 5518 5517 5516 5515 5514 5513 5512 5511 5510 5509 5508
5500 5503 5504 5506 5506 5507 5509 5510 5511 5512 5513 5513 5514 5515 5515 5515 5515 5515 5515 5515 5515 5515 5514 5514 5513 5513 5512 5511 5510 5509 5508 5507 5506 5505 5504 5503 5502 5501 5500 5499 5498 5497 5495 5494
5487 5489 5491 5492 5494 5495 5496 5497 5498 5499 5499 5500 5501 5501 5502 5502 5502 5502 5502 5502 5502 5502 5501 5501 5500 5500 5499 5498 5497 5496 5495 5494 5493 5492 5491 5490 5489 5488 5487 5486 5484 5483 5481 5479
5475 5476 5478 5480 5481 5482 5483 5484 5484 5485 5486 5487 5487 5488 5488 5489 5489 5489 5489 5489 5488 5488 5488 5487 5486 5486 5485 5484 5483 5482 5481 5480 5479 5478 5477 5476 5475 5474 5473 5472 5470 5469 5467 5465
5463 5464 5465 5467 5468 5469 5469 5470 5471 5472 5473 5473 5474 5474 5475 5475 5475 5476 5475 5475 5475 5474 5474 5473 5473 5472 5471 5470 5469 5468 5467 5466 5465 5464 5463 5462 5460 5459 5458 5457 5456 5455 5454 5452
5451 5452 5453 5454 5455 5456 5457 5457 5458 5459 5460 5460 5461 5461 5461 5462 5462 5462 5462 5461 5461 5461 5460 5459 5459 5458 5457 5456 5455 5454 5453 5452 5451 5450 5449 5447 5446 5445 5444 5443 5442 5440 5439 5437
5440 5441 5441 5442 5443 5444 5444 5445 5446 5446 5447 5447 5448 5448 5448 5448 5448 5448 5448 5448 5447 5447 5446 5446 5445 5444 5443 5442 5441 5441 5440 5439 5437 5436 5435 5434 5432 5431 5430 5429 5427 5426 5425 5423
5430 5430 5431 5431 5431 5432 5433 5433 5434 5434 5434 5435 5435 5435 5435 5435 5435 5435 5435 5435 5434 5434 5433 5432 5431 5430 5429 5428 5427 5427 5426 5425 5424 5422 5421 5420 5418 5417 5416 5415 5413 5412 5411 5409
5420 5420 5420 5420 5421 5421 5421 5421 5422 5422 5422 5423 5423 5423 5423 5422 5422 5422 5422 5422 5421 5420 5420 5418 5418 5417 5416 5414 5413 5413 5412 5411 5410 5409 5408 5406 5405 5403 5402 5401 5399 5398 5396 5395
5411 5411 5410 5410 5410 5410 5411 5411 5411 5411 5411 5411 5411 5411 5410 5410 5409 5409 5409 5408 5407 5407 5406 5405 5404 5403 5402 5401 5400 5399 5398 5397 5396 5395 5394 5392 5391 5390 5388 5387 5385 5384 5383 5382
5402 5402 5401 5401 5401 5401 5400 5400 5400 5400 5399 5399 5399 5399 5398 5397 5397 5396 5396 5395 5394 5393 5393 5392 5391 5390 5389 5388 5387 5386 5385 5384 5382 5381 5380 5379 5377 5376 5375 5373 5372 5371 5370 5369
5393 5393 5392 5392 5392 5391 5391 5390 5390 5389 5388 5388 5387 5386 5386 5385 5384 5384 5383 5383 5382 5381 5380 5380 5379 5378 5377 5376 5375 5373 5372 5371 5369 5368 5367 5365 5364 5363 5362 5361 5360 5359 5358 5356
5384 5384 5383 5382 5382 5381 5380 5380 5379 5378 5377 5377 5376 5375 5374 5373 5372 5372 5372 5371 5370 5369 5369 5368 5367 5366 5365 5364 5362 5361 5360 5358 5357 5356 5354 5353 5352 5351 5350 5349 5348 5347 5346 5345
5376 5375 5374 5373 5372 5371 5370 5369 5368 5367 5366 5365 5364 5363 5363 5362 5362 5361 5360 5360 5359 5358 5357 5357 5356 5355 5353 5352 5351 5349 5348 5346 5345 5344 5342 5341 5340 5339 5339 5338 5337 5336 5336 5335
5367 5366 5365 5363 5362 5361 5360 5359 5358 5357 5356 5355 5354 5353 5352 5352 5351 5350 5349 5349 5348 5347 5346 5345 5344 5343 5342 5341 5339 5338 5336 5335 5333 5332 5331 5330 5329 5329 5328 5327 5327 5326 5325 5324
5359 5357 5356 5354 5353 5352 5351 5350 5349 5348 5347 5346 5344 5343 5342 5342 5341 5340 5339 5338 5337 5336 5335 5335 5334 5332 5331 5330 5328 5327 5325 5324 5322 5321 5320 5319 5319 5318 5318 5317 5316 5316 5315 5314
5350 5349 5347 5346 5344 5343 5342 5341 5340 5339 5338 5337 5336 5335 5333 5333 5332 5331 5330 5329 5328 5326 5325 5324 5323 5322 5320 5319 5317 5316 5315 5314 5312 5311 5310 5309 5309 5308 5308 5307 5306 5306 5305 5304